[[{"header":{"parameterUnit":"m.s-1","parameterCategory":1,"la1":30.2991,"la2":30.254,"lo1":-89.0895,"lo2":-89.0444,"dy":0.0017,"dx":0.0017,"nx":28,"ny":28,"refTime":"2025-07-05T09:00:00:Z","depth":0,"parameterNumber":2,"parameterNumberName":"U-component_of_WINDS"},"data":[0,0,0,0,0,0,0,0,0,0,0,0,0,0,0,0,0,0,0,0,0,0,0,0,0,0,0,0,0,0,0,0,0,0,0,0,0,0,0,0,0,0,0,0,0,0,0,0,0,0,0,0,0,0,0,0,0,0,-1.6071,-1.6078,0,-1.6757,-1.6765,-1.6773,-1.7114,-1.7114,-1.7114,-1.7114,-1.785,-1.787,-1.7889,0,0,0,0,0,0,0,0,0,0,0,0,0,-1.5088,-1.5104,-1.607,-1.6079,-1.6087,-1.6756,-1.6766,-1.6775,-1.7114,-1.7114,-1.7114,-1.7114,-1.7844,-1.7867,-1.7891,0,0,0,0,0,0,0,0,0,0,0,0,0,-1.5619,-1.5109,-1.6069,-1.6336,-1.6367,-1.6754,-1.6766,-1.6778,-1.7114,-1.7114,-1.7114,-1.7114,-1.7836,-1.7865,-1.7894,-1.8077,0,0,-1.7984,-1.7997,0,0,0,0,0,0,0,0,-1.5589,-1.5655,-1.6289,-1.6319,-1.6354,-1.6849,-1.669,-1.7214,-1.7114,-1.6832,-1.7114,-1.7114,-1.752,-1.7575,-1.7705,-1.8111,-1.8143,-1.7987,-1.8004,-1.8017,-1.8025,0,0,0,0,0,0,0,-1.5551,-1.5628,-1.6344,-1.6298,-1.6338,-1.6434,-1.6509,-1.6791,-1.7169,-1.6856,-1.6883,-1.6957,-1.7538,-1.7676,-1.7725,-1.8154,-1.7986,-1.8012,-1.803,-1.8042,-1.8754,-1.8755,0,0,0,0,0,0,-1.5466,-1.5594,-1.6322,-1.6364,-1.5962,-1.6451,-1.6536,-1.6691,-1.7166,-1.7238,-1.6957,-1.6971,-1.7626,-1.769,-1.7752,-1.8002,-1.8017,-1.8044,-1.8061,-1.8753,-1.8754,-1.8755,0,0,0,0,0,0,-1.5444,-1.5528,-1.6294,-1.5987,-1.6091,-1.6468,-1.664,-1.6705,-1.6843,-1.7242,-1.7314,-1.7026,-1.7628,-1.7711,-1.7993,-1.8032,-1.8058,-1.8085,-1.8751,-1.8753,-1.8755,-1.8498,0,0,0,0,0,0,-1.5414,-1.5518,-1.5582,-1.5985,-1.6106,-1.6511,-1.6642,-1.6718,-1.6889,-1.6913,-1.7326,-1.7395,-1.7634,-1.7947,-1.8022,-1.8073,-1.8108,-1.875,-1.8752,-1.8754,-1.8505,-1.8491,-1.8479,0,0,0,0,0,-1.5378,-1.5489,-1.5584,-1.567,-1.6193,-1.6513,-1.6584,-1.6847,-1.689,-1.6965,-1.7222,-1.7382,-1.8014,-1.7973,-1.8061,-1.8121,-1.8748,-1.8751,-1.8754,-1.8511,-1.8494,-1.848,0,0,0,0,0,0,-1.5093,-1.5547,-1.5657,-1.5899,-1.6163,-1.6569,-1.6671,-1.682,-1.7087,-1.71,-1.7427,-1.7518,-1.7772,-1.7976,-1.7921,-1.8327,-1.8398,-1.8418,-1.8183,-1.8171,-1.8158,-1.8105,-1.8132,0,0,0,0,0,-1.5055,-1.5266,-1.5657,-1.5834,-1.5959,-1.629,-1.644,-1.6619,-1.6912,-1.7029,-1.7307,-1.7593,-1.7859,-1.8026,-1.8291,-1.8536,-1.8637,-1.8622,-1.8609,-1.8596,-1.8612,-1.8764,-1.8764,-1.8765,-1.8765,-1.8765,0,0,-1.4987,-1.5261,-1.5376,-1.5783,-1.6009,-1.623,-1.6383,-1.6611,-1.6782,-1.7068,-1.7348,-1.7562,-1.7906,-1.817,-1.8301,-1.8348,-1.8633,-1.86,-1.8587,-1.861,-1.8767,-1.8766,-1.8765,-1.8767,-1.8766,-1.8766,0,0,-1.4973,-1.5197,-1.537,-1.5592,-1.5928,-1.6148,-1.6189,-1.6574,-1.6723,-1.7008,-1.7228,-1.7443,-1.7889,-1.8125,-1.8304,-1.8381,-1.8541,-1.8459,-1.8394,-1.8538,-1.8538,-1.8539,-1.8572,-1.858,-1.8473,-1.8472,-1.8472,0,-1.4847,-1.5177,-1.5444,-1.5658,-1.5835,-1.6092,-1.6277,-1.6483,-1.6893,-1.7015,-1.7058,-1.7626,-1.7875,-1.8201,-1.8219,-1.8354,-1.842,-1.8415,-1.8513,-1.8518,-1.8524,-1.856,-1.8571,-1.846,-1.8462,-1.8463,-1.8464,0,-1.5009,-1.5236,-1.5338,-1.5714,-1.5904,-1.6102,-1.6409,-1.6571,-1.6735,-1.6953,-1.7246,-1.7553,-1.7886,-1.7977,-1.8144,-1.8331,-1.8349,-1.8448,-1.8528,-1.8507,-1.8547,-1.8562,-1.8443,-1.8447,-1.8451,-1.8454,0,0,-1.4837,-1.5355,-1.5389,-1.5564,-1.5955,-1.6142,-1.6357,-1.6672,-1.6807,-1.7083,-1.7278,-1.765,-1.7745,-1.7947,-1.8144,-1.8269,-1.8318,-1.8357,-1.837,-1.8342,-1.855,-1.8474,-1.8484,-1.8425,-1.8428,-1.8431,-1.8523,0,-1.4881,-1.5262,-1.5509,-1.5799,-1.6017,-1.6266,-1.6455,-1.6721,-1.6932,-1.7158,-1.7399,-1.7657,-1.776,-1.7884,-1.8019,-1.8281,-1.8365,-1.8279,-1.8621,-1.8629,-1.8527,-1.8504,-1.8425,-1.8495,-1.8539,-1.8542,-1.8544,0,-1.4983,-1.5239,-1.5545,-1.5913,-1.6015,-1.6177,-1.6489,-1.6697,-1.7009,-1.7156,-1.7379,-1.7578,-1.7828,-1.7882,-1.8237,-1.8172,-1.8329,-1.8479,-1.8489,-1.8534,-1.8586,-1.8553,-1.8524,-1.8535,-1.857,-1.8568,-1.8566,0,-1.483,-1.5254,-1.5493,-1.5636,-1.607,-1.618,-1.6369,-1.6679,-1.6854,-1.7131,-1.725,-1.7555,-1.7724,-1.7962,-1.8242,-1.8255,-1.8571,-1.8648,-1.8709,-1.8701,-1.8767,-1.8759,-1.8765,-1.8859,-1.8859,-1.8859,-1.8858,0,-1.4855,-1.5034,-1.543,-1.5577,-1.5789,-1.6077,-1.6284,-1.6495,-1.6769,-1.6972,-1.721,-1.7398,-1.7754,-1.799,-1.8212,-1.8476,-1.855,-1.8684,-1.8741,-1.8664,-1.8647,-1.8773,-1.8777,-1.8862,-1.8861,-1.8861,-1.886,0,-1.4721,-1.4991,-1.5269,-1.5655,-1.5757,-1.5896,-1.6234,-1.6394,-1.6616,-1.687,-1.6947,-1.7302,-1.7591,-1.7892,-1.8288,-1.8439,-1.8695,-1.8774,-1.8585,-1.8619,-1.8663,-1.8656,-1.8754,-1.8785,-1.8851,-1.8849,-1.8849,0,-1.472,-1.4862,-1.526,-1.5406,-1.5585,-1.5819,-1.5996,-1.6289,-1.6466,-1.6832,-1.695,-1.7254,-1.7513,-1.7966,-1.8267,-1.8574,-1.8664,-1.8677,-1.8712,-1.8631,-1.867,-1.8659,-1.8678,-1.8665,-1.8663,-1.8661,-1.866,0,-1.4691,-1.4818,-1.5056,-1.5342,-1.5543,-1.5787,-1.6041,-1.6151,-1.6496,-1.6685,-1.6976,-1.7176,-1.7576,-1.7879,-1.8221,-1.8432,-1.8607,-1.8645,-1.8677,-1.8601,-1.8487,-1.8553,-1.8555,-1.8643,-1.8644,-1.8646,-1.8647,-1.8647,-1.4629,-1.4767,-1.5067,-1.5328,-1.5546,-1.5778,-1.5946,-1.6186,-1.643,-1.6769,-1.6931,-1.7225,-1.7544,-1.8018,-1.8224,-1.8467,-1.8518,-1.8562,-1.8574,-1.8581,-1.8563,-1.8443,-1.8531,-1.8532,-1.8533,-1.8534,-1.8534,0,-1.4616,-1.482,-1.5055,-1.5396,-1.5603,-1.5736,-1.6025,-1.6193,-1.6444,-1.6719,-1.6966,-1.7306,-1.7602,-1.7924,-1.8242,-1.8376,-1.8465,-1.845,-1.8446,-1.8493,-1.8498,-1.844,-1.8373,-1.8373,-1.8373,-1.8373,-1.8373,-1.8373,-1.4633,-1.4875,-1.5037,-1.5395,-1.5604,-1.5882,-1.6037,-1.6256,-1.6476,-1.6839,-1.7081,-1.7285,-1.7585,-1.7926,-1.8207,-1.8297,-1.8406,-1.8368,-1.848,-1.848,-1.8492,-1.8504,-1.8452,-1.8388,-1.8387,-1.8457,-1.8457,-1.8457]},{"header":{"parameterUnit":"m.s-1","parameterCategory":1,"la1":30.2991,"la2":30.254,"lo1":-89.0895,"lo2":-89.0444,"dy":0.0017,"dx":0.0017,"nx":28,"ny":28,"refTime":"2025-07-05T09:00:00:Z","depth":0,"parameterNumber":3,"parameterNumberName":"V-component_of_WINDS"},"data":[0,0,0,0,0,0,0,0,0,0,0,0,0,0,0,0,0,0,0,0,0,0,0,0,0,0,0,0,0,0,0,0,0,0,0,0,0,0,0,0,0,0,0,0,0,0,0,0,0,0,0,0,0,0,0,0,0,0,3.8296,3.8297,0,3.8384,3.8385,3.8386,3.8355,3.8353,3.8351,3.8349,3.8433,3.8437,3.844,0,0,0,0,0,0,0,0,0,0,0,0,0,3.8094,3.8098,3.8296,3.8297,3.8298,3.8384,3.8385,3.8386,3.8355,3.8353,3.835,3.8348,3.8431,3.8436,3.8441,0,0,0,0,0,0,0,0,0,0,0,0,0,3.8182,3.8099,3.8295,3.8293,3.8294,3.8384,3.8385,3.8387,3.8356,3.8353,3.835,3.8347,3.843,3.8436,3.8442,3.8537,0,0,3.846,3.8463,0,0,0,0,0,0,0,0,3.8177,3.8189,3.8292,3.8293,3.8294,3.8356,3.8345,3.8437,3.8356,3.8332,3.8349,3.8346,3.8409,3.8416,3.8439,3.8541,3.8545,3.8461,3.8464,3.8467,3.8469,0,0,0,0,0,0,0,3.8171,3.8185,3.833,3.8294,3.8295,3.8285,3.8295,3.8362,3.8385,3.8334,3.8332,3.8343,3.8409,3.8433,3.8441,3.8546,3.846,3.8466,3.847,3.8472,3.8731,3.8734,0,0,0,0,0,0,3.8165,3.818,3.8328,3.8333,3.8227,3.8291,3.8302,3.8339,3.8385,3.8389,3.8345,3.8341,3.8425,3.8434,3.8444,3.8559,3.8467,3.8472,3.8476,3.8728,3.8732,3.8735,0,0,0,0,0,0,3.8161,3.8178,3.8324,3.8256,3.8274,3.8298,3.834,3.8342,3.8367,3.8394,3.8397,3.8367,3.8423,3.8435,3.8515,3.8561,3.8475,3.8481,3.8724,3.8729,3.8734,3.879,0,0,0,0,0,0,3.8155,3.8177,3.8215,3.8257,3.8278,3.8396,3.8343,3.8346,3.8378,3.8373,3.8414,3.8418,3.8421,3.8506,3.8521,3.8568,3.8485,3.872,3.8726,3.8732,3.8784,3.8796,3.8806,0,0,0,0,0,3.8148,3.8226,3.8217,3.8235,3.8326,3.8398,3.841,3.8414,3.8382,3.8419,3.8437,3.8417,3.8554,3.8514,3.8531,3.8581,3.8717,3.8725,3.8732,3.8779,3.8794,3.8806,0,0,0,0,0,0,3.8185,3.8231,3.8222,3.8316,3.8354,3.8393,3.844,3.8429,3.8475,3.8468,3.8469,3.8478,3.856,3.8578,3.8533,3.8676,3.8631,3.8642,3.8661,3.8675,3.8686,3.8679,3.849,0,0,0,0,0,3.8205,3.8262,3.8298,3.8377,3.8397,3.8416,3.8447,3.8447,3.8485,3.85,3.8523,3.8559,3.8611,3.8644,3.8693,3.8787,3.8795,3.8829,3.8841,3.885,3.8858,3.891,3.8925,3.876,3.876,3.8759,0,0,3.8244,3.8277,3.8312,3.8385,3.8415,3.8472,3.8429,3.8491,3.8533,3.8509,3.8586,3.8605,3.8645,3.8732,3.8772,3.875,3.8907,3.8859,3.8866,3.887,3.8919,3.8934,3.8948,3.8765,3.8764,3.8763,0,0,3.8346,3.8377,3.8447,3.8478,3.8524,3.8536,3.8553,3.8595,3.8607,3.8685,3.8669,3.8718,3.8806,3.8835,3.8862,3.8978,3.8961,3.8993,3.9051,3.9101,3.9114,3.9125,3.9166,3.918,3.9002,3.9003,3.9003,0,3.8389,3.8476,3.8483,3.8547,3.858,3.8564,3.8634,3.8663,3.8722,3.8743,3.8719,3.8831,3.8856,3.895,3.8979,3.9001,3.9019,3.8987,3.9112,3.9124,3.9134,3.9173,3.9188,3.9006,3.9006,3.9005,3.9005,0,3.8526,3.8588,3.8638,3.8698,3.8736,3.8803,3.8818,3.8856,3.8853,3.8868,3.8947,3.8979,3.9033,3.9056,3.9053,3.915,3.9135,3.9112,3.9066,3.9154,3.919,3.9205,3.9011,3.901,3.9009,3.9008,0,0,3.865,3.8716,3.8734,3.8762,3.8813,3.8859,3.8925,3.8982,3.9013,3.9055,3.9109,3.9185,3.9165,3.9195,3.9195,3.9239,3.9328,3.921,3.9211,3.923,3.9436,3.9452,3.9469,3.9318,3.9321,3.9324,3.9432,0,3.8755,3.8873,3.8882,3.8988,3.9044,3.9031,3.9089,3.9125,3.9141,3.9189,3.9206,3.926,3.9229,3.9247,3.929,3.9308,3.9369,3.9301,3.9366,3.9369,3.9355,3.9488,3.9505,3.9607,3.9447,3.9449,3.9451,0,3.8893,3.8942,3.9054,3.9098,3.9122,3.9174,3.9226,3.9274,3.9315,3.9323,3.9359,3.9354,3.9419,3.9374,3.9463,3.9417,3.9444,3.9457,3.9461,3.9466,3.9413,3.9495,3.9639,3.9653,3.9473,3.9471,3.947,0,3.8971,3.9065,3.9144,3.9168,3.9222,3.9259,3.9282,3.9321,3.9355,3.9401,3.9422,3.9475,3.9502,3.9542,3.9551,3.9517,3.9641,3.9595,3.9647,3.9647,3.9672,3.967,3.9821,3.9693,3.9693,3.9693,3.9692,0,3.9085,3.9154,3.918,3.9228,3.9305,3.9314,3.9389,3.941,3.9445,3.9496,3.9488,3.9536,3.9546,3.9595,3.9602,3.9675,3.9688,3.9695,3.9696,3.9695,3.9694,3.9711,3.9703,3.9697,3.9696,3.9695,3.9694,0,3.9184,3.9204,3.929,3.9336,3.9349,3.9403,3.9441,3.9487,3.9503,3.9568,3.9584,3.9608,3.9666,3.968,3.9747,3.9752,3.9838,3.9833,3.9825,3.9824,3.9875,3.987,4.0041,4.0063,3.9923,3.9924,3.9925,0,3.9255,3.9308,3.9361,3.9396,3.9422,3.9478,3.9514,3.9526,3.9563,3.9615,3.9654,3.9712,3.9758,3.9851,3.9874,3.9926,3.992,3.9977,3.9928,3.9925,3.9919,3.9915,3.992,3.9985,3.9987,3.9988,3.9989,0,3.9378,3.9386,3.9439,3.9496,3.954,3.9584,3.9627,3.9655,3.9673,3.9715,3.9776,3.9812,3.9884,3.994,3.9993,4.0015,4.0005,4.0005,4.002,4.0018,4.0011,4.0014,3.9849,4.0,3.9999,3.9998,3.9998,3.9997,3.9463,3.951,3.9555,3.9615,3.9649,3.969,3.9735,3.9759,3.9811,3.9871,3.9875,3.9941,3.9981,4.0052,4.0078,4.0128,4.011,4.0132,4.0137,4.0141,4.0145,4.0005,4.0138,4.0138,4.0137,4.0137,4.0137,0,3.9585,3.9614,3.9669,3.9731,3.9777,3.9768,3.9815,3.9853,3.9912,3.9953,4.0,4.007,4.0126,4.0154,4.0209,4.0244,4.024,4.0257,4.0254,4.0259,4.0159,4.014,4.0259,4.0259,4.0259,4.0259,4.0259,4.0259,3.9653,3.9732,3.9746,3.9841,3.987,3.9936,3.9964,4.0001,4.0033,4.0113,4.016,4.018,4.0215,4.0273,4.0323,4.033,4.035,4.0369,4.0373,4.0278,4.0266,4.0254,4.0236,4.0374,4.0374,4.0469,4.047,4.047]}]]